LOT3923 EPKK-EPWA

Flight info

Callsign LOT3923
Flight time 0h 33m
Altitude 27000
Route POBOK M985 KOTEK M866 LOGDA
Aircraft B789/H-V/N

Departure

Time 2026-04-30 11:27
Airport Kraków John Paul II International Airport (EPKK)

Arrival

Time 2026-04-30 12:00
Airport Warsaw Chopin Airport (EPWA)
Time Latitude Longitude Altitude Speed Heading
2026-04-30 10:59 50.07302 19.79883 805 ft 0 kts 167°
2026-04-30 11:21 50.07306 19.79882 805 ft 3 kts 167°
2026-04-30 11:21 50.07324 19.79875 806 ft 3 kts 153°
2026-04-30 11:21 50.07338 19.79855 806 ft 3 kts 109°
2026-04-30 11:22 50.07341 19.79833 806 ft 0 kts 83°
2026-04-30 11:22 50.07342 19.79837 806 ft 2 kts 69°
2026-04-30 11:23 50.07358 19.79856 806 ft 4 kts 38°
2026-04-30 11:23 50.07371 19.79882 806 ft 7 kts 57°
2026-04-30 11:23 50.07409 19.80101 806 ft 12 kts 77°
2026-04-30 11:24 50.07429 19.80240 806 ft 14 kts 77°
2026-04-30 11:24 50.07468 19.80368 806 ft 11 kts 30°
2026-04-30 11:24 50.07542 19.80410 806 ft 12 kts 14°
2026-04-30 11:25 50.07699 19.80384 806 ft 12 kts 347°
2026-04-30 11:25 50.07783 19.80357 806 ft 13 kts 349°
2026-04-30 11:25 50.07972 19.80295 805 ft 15 kts 342°
2026-04-30 11:26 50.08004 19.80129 806 ft 10 kts 256°
2026-04-30 11:26 50.07981 19.79960 806 ft 38 kts 258°
2026-04-30 11:26 50.07815 19.78750 808 ft 132 kts 258°
2026-04-30 11:27 50.07574 19.77078 1025 ft 169 kts 262°
2026-04-30 11:27 50.07406 19.76003 1933 ft 139 kts 258°
2026-04-30 11:27 50.07122 19.74608 2715 ft 145 kts 254°
2026-04-30 11:27 50.06783 19.72989 3151 ft 169 kts 256°
2026-04-30 11:28 50.06415 19.68873 4237 ft 215 kts 264°
2026-04-30 11:28 50.06241 19.66422 4781 ft 239 kts 280°
2026-04-30 11:28 50.06989 19.64228 5898 ft 231 kts 312°
2026-04-30 11:29 50.08350 19.62772 6516 ft 250 kts 346°
2026-04-30 11:29 50.10081 19.62250 7415 ft 255 kts 350°
2026-04-30 11:29 50.13710 19.61758 8265 ft 267 kts 15°
2026-04-30 11:30 50.16737 19.64864 8074 ft 264 kts 39°
2026-04-30 11:30 50.18121 19.66733 9115 ft 259 kts 39°
2026-04-30 11:30 50.19480 19.68582 10267 ft 261 kts 40°
2026-04-30 11:31 50.20874 19.70476 10987 ft 275 kts 40°
2026-04-30 11:31 50.22384 19.72522 11032 ft 310 kts 40°
2026-04-30 11:31 50.24086 19.74837 11033 ft 333 kts 40°
2026-04-30 11:31 50.25850 19.77245 11029 ft 339 kts 40°
2026-04-30 11:32 50.27640 19.79687 11026 ft 341 kts 40°
2026-04-30 11:32 50.29443 19.82147 11299 ft 345 kts 40°
2026-04-30 11:32 50.31239 19.84598 12329 ft 343 kts 40°
2026-04-30 11:33 50.34872 19.89569 14059 ft 350 kts 40°
2026-04-30 11:33 50.36714 19.92093 14841 ft 353 kts 40°
2026-04-30 11:33 50.38570 19.94639 15572 ft 356 kts 40°
2026-04-30 11:33 50.40439 19.97207 16323 ft 359 kts 40°
2026-04-30 11:34 50.42318 19.99789 17045 ft 361 kts 40°
2026-04-30 11:34 50.44218 20.02405 17748 ft 364 kts 40°
2026-04-30 11:34 50.46130 20.05040 18450 ft 367 kts 40°
2026-04-30 11:34 50.48031 20.07662 19043 ft 370 kts 40°
2026-04-30 11:35 50.49963 20.10331 19742 ft 368 kts 40°
2026-04-30 11:35 50.51877 20.12977 20536 ft 365 kts 40°
2026-04-30 11:35 50.53768 20.15595 21328 ft 360 kts 40°
2026-04-30 11:35 50.55643 20.18191 22067 ft 358 kts 40°
2026-04-30 11:36 50.57584 20.20626 22742 ft 355 kts 33°
2026-04-30 11:36 50.59744 20.22478 23448 ft 353 kts 24°
2026-04-30 11:36 50.62058 20.23760 24100 ft 353 kts 19°
2026-04-30 11:36 50.64391 20.24947 24652 ft 350 kts 21°
2026-04-30 11:37 50.66623 20.26431 25167 ft 347 kts 25°
2026-04-30 11:37 50.68837 20.27943 25741 ft 345 kts 25°
2026-04-30 11:37 50.71038 20.29434 26314 ft 343 kts 25°
2026-04-30 11:37 50.73218 20.30930 26896 ft 341 kts 25°
2026-04-30 11:38 50.75387 20.32429 27425 ft 341 kts 25°
2026-04-30 11:38 50.77615 20.33966 27415 ft 353 kts 25°
2026-04-30 11:38 50.79870 20.35516 27415 ft 352 kts 25°
2026-04-30 11:38 50.82112 20.37060 27419 ft 352 kts 25°
2026-04-30 11:39 50.84358 20.38612 27414 ft 353 kts 25°
2026-04-30 11:39 50.86610 20.40170 27412 ft 353 kts 25°
2026-04-30 11:39 50.88864 20.41729 27411 ft 353 kts 25°
2026-04-30 11:39 50.91110 20.43284 27219 ft 350 kts 25°
2026-04-30 11:40 50.93295 20.44798 26723 ft 344 kts 25°
2026-04-30 11:40 50.95470 20.46308 26282 ft 337 kts 25°
2026-04-30 11:40 50.97596 20.47785 25833 ft 332 kts 25°
2026-04-30 11:40 50.99712 20.49258 25397 ft 332 kts 25°
2026-04-30 11:41 51.01850 20.50747 24953 ft 337 kts 25°
2026-04-30 11:41 51.04012 20.52254 24473 ft 342 kts 25°
2026-04-30 11:41 51.06196 20.53776 23985 ft 344 kts 25°
2026-04-30 11:41 51.08395 20.55312 23448 ft 345 kts 25°
2026-04-30 11:42 51.10591 20.56847 22939 ft 345 kts 25°
2026-04-30 11:42 51.12801 20.58394 22417 ft 348 kts 25°
2026-04-30 11:42 51.15027 20.59953 21858 ft 349 kts 25°
2026-04-30 11:42 51.17229 20.61498 21324 ft 351 kts 25°
2026-04-30 11:43 51.19464 20.63067 20742 ft 352 kts 25°
2026-04-30 11:43 51.21707 20.64643 20155 ft 353 kts 25°
2026-04-30 11:43 51.23944 20.66216 19715 ft 344 kts 25°
2026-04-30 11:43 51.26075 20.67715 19589 ft 325 kts 25°
2026-04-30 11:44 51.28095 20.69137 19474 ft 311 kts 24°
2026-04-30 11:44 51.30148 20.70318 19119 ft 319 kts 20°
2026-04-30 11:44 51.32272 20.71436 18761 ft 321 kts 19°
2026-04-30 11:44 51.34389 20.72554 18384 ft 315 kts 20°
2026-04-30 11:45 51.36420 20.73644 18085 ft 321 kts 20°
2026-04-30 11:45 51.38554 20.74768 17547 ft 323 kts 16°
2026-04-30 11:45 51.40812 20.75152 16627 ft 327 kts
2026-04-30 11:45 51.43089 20.75269 16008 ft 323 kts
2026-04-30 11:46 51.45239 20.75362 15622 ft 290 kts
2026-04-30 11:46 51.47163 20.75464 15309 ft 271 kts
2026-04-30 11:46 51.49070 20.75584 15018 ft 276 kts
2026-04-30 11:46 51.50979 20.75695 14496 ft 276 kts
2026-04-30 11:47 51.52901 20.75798 13916 ft 275 kts
2026-04-30 11:47 51.54808 20.75901 13367 ft 273 kts
2026-04-30 11:47 51.56697 20.76009 12819 ft 270 kts
2026-04-30 11:47 51.58539 20.76510 12246 ft 268 kts 15°
2026-04-30 11:48 51.60295 20.77307 11726 ft 266 kts 16°
2026-04-30 11:48 51.62092 20.78037 11205 ft 264 kts 13°
2026-04-30 11:48 51.63879 20.78647 10689 ft 262 kts 13°
2026-04-30 11:48 51.65657 20.79256 10171 ft 260 kts 13°
2026-04-30 11:49 51.67381 20.79876 9056 ft 252 kts 13°
2026-04-30 11:49 51.69108 20.80503 7783 ft 253 kts 13°
2026-04-30 11:49 51.70815 20.81118 6612 ft 250 kts 13°
2026-04-30 11:49 51.72420 20.82103 5253 ft 250 kts 34°
2026-04-30 11:50 51.73698 20.83978 4411 ft 253 kts 44°
2026-04-30 11:50 51.74869 20.85960 4395 ft 235 kts 44°
2026-04-30 11:50 51.75969 20.87859 4400 ft 225 kts 44°
2026-04-30 11:50 51.77047 20.89697 4308 ft 226 kts 44°
2026-04-30 11:51 51.78125 20.91513 4157 ft 224 kts 44°
2026-04-30 11:51 51.79197 20.93336 4024 ft 225 kts 44°
2026-04-30 11:51 51.80205 20.95262 3974 ft 223 kts 50°
2026-04-30 11:51 51.81107 20.97294 3981 ft 223 kts 52°
2026-04-30 11:52 51.82024 20.99317 3985 ft 220 kts 50°
2026-04-30 11:52 51.82954 21.01301 3997 ft 226 kts 50°
2026-04-30 11:52 51.83893 21.03304 3990 ft 223 kts 50°
2026-04-30 11:52 51.84832 21.05310 3978 ft 224 kts 50°
2026-04-30 11:53 51.85765 21.07311 3979 ft 223 kts 50°
2026-04-30 11:53 51.86688 21.09301 3982 ft 220 kts 51°
2026-04-30 11:53 51.87618 21.11298 3976 ft 221 kts 50°
2026-04-30 11:53 51.88546 21.13295 3977 ft 221 kts 50°
2026-04-30 11:54 51.89479 21.15299 3981 ft 222 kts 50°
2026-04-30 11:54 51.90590 21.16953 3956 ft 217 kts 21°
2026-04-30 11:54 51.92049 21.17476 3958 ft 215 kts 354°
2026-04-30 11:54 51.93468 21.16712 3991 ft 217 kts 337°
2026-04-30 11:55 51.94824 21.15661 3990 ft 216 kts 333°
2026-04-30 11:55 51.96143 21.14515 3984 ft 219 kts 333°
2026-04-30 11:55 51.97474 21.13358 3989 ft 216 kts 333°
2026-04-30 11:55 51.98799 21.12203 3990 ft 214 kts 333°
2026-04-30 11:56 52.00131 21.11057 3878 ft 220 kts 333°
2026-04-30 11:56 52.01462 21.09901 3607 ft 212 kts 332°
2026-04-30 11:56 52.02766 21.08768 3319 ft 212 kts 332°
2026-04-30 11:56 52.04060 21.07638 3027 ft 208 kts 332°
2026-04-30 11:57 52.05345 21.06515 2746 ft 212 kts 332°
2026-04-30 11:57 52.06624 21.05409 2436 ft 204 kts 332°
2026-04-30 11:57 52.07817 21.04373 2148 ft 179 kts 332°
2026-04-30 11:57 52.08805 21.03506 1893 ft 147 kts 332°
2026-04-30 11:58 52.09655 21.02760 1711 ft 128 kts 332°
2026-04-30 11:58 52.10399 21.02113 1522 ft 118 kts 333°
2026-04-30 11:58 52.11124 21.01475 1436 ft 120 kts 333°
2026-04-30 11:58 52.11888 21.00808 1224 ft 122 kts 333°
2026-04-30 11:59 52.12626 21.00175 1070 ft 121 kts 332°
2026-04-30 11:59 52.13391 20.99507 882 ft 127 kts 331°
2026-04-30 11:59 52.14165 20.98817 684 ft 125 kts 330°
2026-04-30 11:59 52.14934 20.98144 525 ft 125 kts 330°
2026-04-30 12:00 52.15720 20.97462 383 ft 132 kts 331°
2026-04-30 12:00 52.16435 20.96833 354 ft 94 kts 331°
2026-04-30 12:00 52.16794 20.96542 354 ft 43 kts 345°
2026-04-30 12:00 52.17038 20.96518 349 ft 22 kts 11°
2026-04-30 12:01 52.17120 20.96659 353 ft 17 kts 62°
2026-04-30 12:01 52.17169 20.96822 352 ft 12 kts 70°
2026-04-30 12:01 52.17205 20.96942 349 ft 7 kts 60°
2026-04-30 12:01 52.17206 20.96945 349 ft 0 kts 60°